Wetbulb
40.98 43.35 43.40 45.45 45.96 45.79 45.86 45.93 45.60 45.57 45.76 46.09 46.11 46.04 45.67 45.17 43.50 39.12 36.81 39.53 34.96 30.61 32.68 35.81 35.92 31.04 29.79 28.11 25.59 28.54 27.56 28.13 25.41 20.89 22.24 20.17 21.01 24.82 23.58 26.12 25.71 22.20 20.17 16.37 20.67 17.83 14.48 29.42 29.53 23.58 27.54 30.80 31.54 32.59
40.91 41.70 43.47 42.98 44.65 46.05 45.70 45.78 45.72 45.65 45.90 45.85 46.11 46.06 45.88 45.20 43.45 41.07 36.12 40.38 39.91 33.67 32.83 36.50 36.71 37.18 35.63 33.43 29.53 28.47 28.12 28.28 28.61 25.01 24.84 24.56 22.30 20.18 22.70 16.86 26.97 18.64 22.18 19.50 21.54 20.30 29.14 30.59 29.93 31.82 32.45 30.59 31.38 32.78
40.45 40.96 42.35 43.64 43.38 44.26 46.05 45.70 45.49 45.44 45.74 45.92 45.93 46.27 45.95 44.91 43.75 41.17 36.96 37.77 35.64 30.68 29.11 30.32 30.37 35.53 38.75 37.21 35.53 28.28 28.77 32.62 30.22 29.03 23.74 22.91 19.70 22.51 16.87 19.67 19.67 25.29 30.36 23.48 25.45 26.52 28.96 29.90 32.46 31.87 31.95 32.43 32.43 33.76
39.62 40.64 41.08 43.00 43.71 43.77 45.15 45.72 45.39 45.21 45.34 45.56 45.77 45.90 45.76 45.18 43.87 41.16 37.05 37.65 35.42 30.54 23.52 28.62 37.69 34.00 38.28 37.54 35.79 34.48 33.12 33.57 32.54 30.03 23.40 21.24 22.40 27.02 21.04 23.19 19.47 22.24 25.05 22.75 25.47 28.59 31.01 31.75 31.50 29.88 31.24 33.64 33.35 33.05
39.63 39.90 41.23 42.42 43.22 43.63 44.20 45.30 45.39 44.99 45.29 45.56 45.57 45.74 45.62 44.79 43.07 39.09 37.38 38.38 38.89 31.28 25.37 28.02 32.97 36.02 37.18 36.15 34.72 33.77 32.09 29.24 27.29 25.38 21.50 21.63 26.54 25.71 25.46 25.00 17.60 25.23 21.67 19.14 18.61 27.48 26.71 29.92 32.25 30.53 30.29 30.92 33.76 30.16
39.71 39.82 40.26 41.77 42.51 42.69 43.24 44.28 45.50 45.44 44.86 45.25 45.41 45.53 45.34 43.91 41.33 34.80 27.93 34.72 39.11 36.59 27.21 21.23 30.85 32.49 34.99 34.78 33.09 31.74 30.99 28.60 27.44 26.20 23.38 26.77 29.17 25.53 18.94 20.85 26.73 32.28 31.88 28.07 26.20 32.07 31.69 32.85 30.21 29.99 29.94 32.68 31.77 28.23
39.61 39.88 40.29 41.28 42.31 42.46 42.38 42.72 44.80 45.43 45.36 45.25 45.14 45.23 44.77 42.65 36.46 30.64 28.87 34.05 40.42 36.60 25.34 20.12 24.33 31.05 34.75 33.47 32.09 30.67 31.54 30.31 28.78 26.89 25.02 25.73 26.53 27.76 21.37 21.03 27.21 31.14 31.59 31.40 31.02 31.20 28.12 24.87 22.70 27.84 29.78 29.69 29.62 28.12
39.90 39.87 40.18 40.85 41.83 42.39 41.74 42.42 44.01 44.80 44.90 44.72 45.08 44.51 43.31 42.64 39.72 34.37 36.92 42.13 38.90 32.68 29.06 18.66 22.48 27.03 33.71 27.59 28.99 30.76 29.46 30.30 29.22 27.85 27.54 26.11 27.39 25.92 22.13 26.61 28.64 31.59 31.39 29.97 31.86 31.03 27.15 26.59 27.14 26.13 26.37 26.74 25.20 24.55
40.19 40.22 40.62 40.70 41.14 42.04 41.83 42.05 43.50 44.59 44.78 45.07 44.42 42.34 38.04 33.73 33.49 37.18 41.95 39.58 36.42 30.95 22.51 20.78 20.09 18.36 34.54 29.85 29.83 29.17 29.39 23.41 28.19 23.66 25.43 26.41 24.90 23.05 26.92 29.02 29.61 33.15 30.33 26.10 25.85 25.41 25.65 25.91 24.56 23.85 23.52 23.14 22.80 22.75
40.68 40.64 40.81 40.94 41.27 41.62 42.13 42.43 42.92 44.46 44.56 42.34 38.45 31.93 28.57 31.10 41.76 40.36 34.17 27.09 25.10 25.92 28.00 20.88 24.56 19.48 32.54 25.22 23.38 20.31 23.09 21.01 16.90 24.34 27.86 23.83 24.10 26.40 25.16 25.58 25.67 24.55 26.85 27.25 24.68 23.10 22.83 21.57 22.85 21.68 20.76 21.43 21.54 20.77
40.62 40.84 40.80 40.46 40.62 41.08 41.48 42.41 43.48 44.12 41.20 35.51 31.09 29.23 31.87 41.91 33.04 26.67 24.09 18.09 18.72 20.55 24.34 25.83 25.26 24.01 33.36 24.88 22.14 22.04 22.45 23.57 19.10 23.30 22.81 24.23 21.06 25.05 23.99 22.99 24.10 24.27 24.08 23.03 22.44 21.17 20.56 20.86 20.68 20.41 19.68 20.44 19.64 19.14
40.19 40.19 39.88 40.06 40.17 40.68 40.60 41.49 41.14 38.43 35.81 36.01 36.67 39.57 37.47 32.47 25.95 17.67 13.93 20.31 22.97 21.10 23.78 22.16 23.27 25.92 31.25 34.06 26.95 26.36 22.75 25.16 19.58 29.19 26.25 19.19 19.27 21.95 22.51 22.85 23.10 22.64 22.22 21.48 21.64 20.18 19.71 19.56 19.92 19.11 18.26 18.45 17.30 17.59
40.79 40.70 39.86 39.92 40.03 40.00 41.36 41.71 40.73 40.70 41.50 38.05 33.97 29.38 25.32 23.20 17.05 13.14 13.79 19.51 18.55 22.86 22.78 23.37 19.67 25.18 29.97 31.64 25.79 22.78 21.86 20.87 26.16 20.78 16.56 16.33 21.09 22.64 22.82 21.65 20.80 21.43 21.09 20.34 19.90 19.87 18.86 17.39 17.51 17.56 15.92 15.72 17.68 15.96
40.64 40.68 40.16 39.81 39.81 40.57 41.71 41.10 41.72 41.24 36.15 29.85 25.90 21.48 14.60 18.34 17.27 18.68 19.85 20.90 23.72 22.54 23.86 25.74 22.65 24.23 24.84 26.93 29.29 20.39 20.96 26.34 12.48 13.58 16.92 19.57 20.89 22.35 22.07 21.90 21.24 19.14 18.55 17.39 17.10 17.47 16.89 15.74 14.50 13.54 9.55 11.59 12.03 13.32
40.58 40.54 40.06 39.65 40.24 40.12 39.96 40.94 42.13 39.67 31.53 26.34 24.32 15.19 18.83 16.99 19.18 19.00 20.76 21.47 27.64 23.74 27.42 25.10 26.17 25.16 23.07 21.14 26.03 24.58 23.39 20.96 18.06 18.32 13.53 16.76 22.61 22.20 21.26 21.63 19.57 17.00 13.07 12.20 10.19 8.09 5.55 7.15 9.55 6.47 6.74 6.94 10.43 4.96
40.67 39.51 35.55 39.92 40.22 40.16 38.77 39.75 38.54 37.01 29.06 24.79 22.94 21.12 24.42 24.66 25.10 28.01 28.07 27.49 31.10 29.97 26.68 27.40 28.51 22.43 23.91 22.01 24.49 21.98 17.69 11.18 15.58 17.36 20.65 22.75 21.60 20.87 19.28 17.92 16.01 14.21 12.88 10.08 8.86 8.68 5.53 3.61 4.64 5.03 1.27 2.19 0.13 0.95
37.66 31.74 39.31 40.04 40.53 40.10 37.14 34.47 35.21 30.28 28.10 24.29 22.86 24.18 24.64 12.93 21.32 18.65 27.04 29.12 31.05 26.83 21.37 28.76 20.69 20.81 23.93 20.19 23.32 23.92 14.76 12.22 19.27 21.40 16.94 18.19 16.90 16.12 15.70 16.40 14.27 13.23 9.29 6.96 6.22 6.92 6.49 6.18 4.82 8.62 7.54 4.51 2.15 2.94
32.18 37.74 39.64 39.95 38.77 37.01 34.26 35.72 28.41 26.12 21.67 22.67 16.64 21.28 14.31 16.82 15.65 17.69 24.88 27.68 26.80 26.90 27.76 26.49 29.57 24.32 14.16 17.89 14.89 15.70 19.06 18.50 19.42 14.78 12.71 12.22 13.79 12.53 17.37 15.71 15.49 14.49 10.43 8.00 9.48 7.61 7.51 8.92 9.90 9.73 10.05 6.99 6.85 7.16
37.09 37.96 39.50 38.92 37.33 34.45 30.25 28.87 28.48 21.60 20.32 16.27 22.61 17.62 13.70 18.44 22.91 21.86 18.30 21.08 25.20 28.64 28.33 25.95 15.24 16.23 18.09 15.60 16.57 9.77 15.39 11.66 16.00 10.11 7.60 7.52 14.34 16.53 17.50 16.35 13.66 9.30 8.36 8.10 12.13 10.05 7.55 6.48 7.87 7.33 8.84 8.95 5.95 7.02
40.04 39.34 39.05 39.43 39.40 29.56 27.11 25.92 29.23 23.32 17.61 23.23 19.21 16.09 14.94 12.44 14.51 15.48 15.46 21.66 27.89 25.32 20.52 15.86 15.38 13.83 15.35 10.92 11.83 14.39 15.55 18.61 18.24 15.13 11.12 8.78 8.02 10.50 10.17 11.85 8.72 7.95 9.81 9.30 8.37 11.94 9.99 9.39 7.82 7.65 6.39 4.50 2.45 2.39
38.19 38.52 39.30 38.52 31.34 29.66 27.10 24.98 24.67 23.65 22.88 18.72 21.06 22.30 14.60 20.47 21.65 23.52 23.52 26.48 22.79 12.64 12.47 8.66 5.93 18.85 19.42 21.65 11.90 20.59 19.50 20.27 17.54 15.45 14.92 10.64 5.42 12.64 7.74 6.61 11.63 11.43 10.00 6.27 7.42 4.15 3.69 4.78 4.43 6.09 0.88 -1.28 -2.76 -1.03
32.61 39.74 30.66 32.43 27.80 28.26 26.74 27.75 25.77 26.74 24.32 22.44 22.17 23.93 15.13 14.20 13.53 13.82 22.07 17.87 12.23 10.27 10.48 8.09 17.67 17.20 17.39 16.93 10.32 14.47 15.99 15.40 14.27 15.61 13.85 15.24 8.79 8.62 7.57 7.21 11.42 3.97 5.97 6.74 7.95 4.11 3.49 5.75 8.09 6.25 1.18 -0.02 1.41 0.20
36.57 34.38 29.88 29.37 23.81 24.30 22.73 28.29 23.13 24.26 17.77 18.47 23.90 18.23 12.81 14.74 18.60 24.35 9.30 14.06 9.53 9.64 8.61 7.84 6.60 6.74 12.55 9.70 16.15 14.34 12.16 17.91 14.46 13.23 13.82 10.32 7.49 5.93 8.50 7.52 9.65 7.85 6.15 6.15 7.43 6.63 4.27 4.75 3.87 -0.21 -0.93 0.32 2.52 -0.04
34.08 26.91 23.74 24.20 23.20 19.48 23.77 21.65 27.06 24.70 21.98 19.26 17.81 16.20 18.18 18.67 19.65 13.11 10.22 5.68 7.38 13.60 10.80 9.22 16.45 16.17 17.65 17.89 13.82 10.48 9.13 15.40 14.07 12.21 13.79 15.23 11.94 6.46 7.73 9.29 8.21 6.96 9.40 9.77 8.18 4.58 2.78 -1.38 -1.48 2.70 -4.36 -4.36 -7.63 -4.91
22.31 19.88 19.68 19.19 20.73 18.58 20.83 20.49 20.69 20.21 15.46 17.96 19.02 16.19 15.90 17.16 7.95 5.48 8.96 7.74 14.84 10.21 10.32 13.92 15.26 16.68 13.64 8.33 9.02 8.13 7.83 16.66 15.95 13.81 7.17 11.35 8.54 9.05 7.91 7.75 5.79 4.87 6.41 4.77 -0.20 0.17 -0.01 -6.00 -6.72 -4.91 -3.46 -6.90 0.68 -3.10
11.53 13.58 17.23 15.99 15.77 18.28 18.84 15.10 16.69 17.00 17.83 16.69 15.27 15.50 12.27 7.03 7.69 6.76 13.36 7.78 6.81 9.25 13.02 14.45 13.92 11.78 12.22 14.38 13.02 12.49 9.83 11.91 16.00 10.79 6.26 11.21 13.07 10.48 6.67 5.66 1.93 3.62 2.99 -0.21 -0.77 -4.73 -2.19 -1.46 -0.93 -0.78 -4.00 -3.28 -4.05 -7.45
15.68 12.94 19.87 24.58 23.98 23.76 19.43 17.81 21.14 16.38 11.03 12.80 10.97 8.07 7.05 6.24 4.25 10.59 11.60 10.18 11.40 9.70 17.22 17.41 17.89 17.49 15.36 10.61 11.28 10.77 13.61 12.04 12.93 12.62 10.31 10.53 10.71 11.87 11.26 6.89 1.98 4.44 3.40 0.06 -2.91 -2.59 -3.10 -4.55 -5.27 -5.09 -4.91 -2.39 0.01 -2.06
16.07 16.83 13.79 12.58 15.60 17.95 11.89 11.18 11.77 11.53 13.87 17.47 13.23 6.36 5.76 7.48 11.11 11.34 12.65 11.12 9.59 17.83 18.83 18.58 19.19 18.52 16.75 14.46 12.22 12.04 10.93 10.83 10.07 10.39 10.58 9.06 6.31 2.15 0.73 4.19 4.76 7.06 -1.87 -6.54 -6.00 -10.17 -8.72 -8.35 -7.99 -7.27 -3.10 -1.46 -2.01 -8.90
12.41 14.53 15.77 9.11 6.97 8.24 9.62 12.54 11.29 12.06 13.66 12.74 8.41 6.20 7.87 10.18 6.82 9.02 14.83 11.71 15.65 18.78 17.00 14.87 11.02 12.59 10.89 8.11 4.28 10.40 11.29 10.73 5.49 -1.19 -5.30 -5.82 -4.55 0.38 -5.09 -6.36 -6.18 -7.45 -7.27 -4.01 1.80 -2.37 -3.46 -5.09 -3.82 -4.73 -6.72 -7.08 -12.34 -17.24
11.55 15.59 6.17 -1.13 4.25 5.99 4.04 7.30 6.05 3.86 10.29 10.75 11.46 10.96 10.17 6.54 6.79 10.36 13.66 13.74 16.05 16.26 15.15 14.43 13.20 13.20 11.07 10.21 2.87 1.07 -4.37 -3.64 1.17 7.20 5.02 0.47 2.10 -3.20 -5.82 -7.27 -7.99 -10.89 -12.70 -7.45 -6.54 -5.09 2.71 -4.18 -2.02 -9.61 -9.83 -11.25 -13.43 -13.07
15.51 13.68 10.17 4.45 1.21 -0.89 1.56 -1.50 -2.95 -0.06 -2.58 1.07 -3.82 2.94 5.26 4.24 5.69 5.61 13.07 8.59 10.58 13.07 12.44 11.31 4.14 11.40 10.30 8.73 8.99 7.67 4.50 0.31 -1.96 1.69 -0.33 -1.03 -0.32 -0.54 -2.98 -8.53 -11.44 -13.25 -12.89 -10.35 -11.07 -11.62 -12.70 -13.43 -11.80 -12.52 -13.43 -14.34 -16.69 -17.60
5.99 9.24 7.93 6.10 3.80 1.14 -2.09 -0.94 -2.74 -2.74 -5.82 -2.38 -0.45 -4.18 0.18 1.91 2.80 5.37 8.79 15.53 14.43 13.04 8.49 11.85 10.85 9.16 8.40 9.40 8.03 5.97 9.77 8.20 4.93 4.51 5.15 5.21 2.14 -0.06 -2.30 -6.00 -9.28 -7.17 -6.60 -10.17 -12.89 -12.16 -11.44 -9.08 -14.70 -15.42 -16.33 -16.51 -18.69 -19.41
3.17 2.46 1.89 -1.66 -0.34 -0.83 -2.57 -0.50 1.07 -0.08 -0.82 -2.73 -4.55 -3.46 -1.06 2.83 3.65 5.64 4.60 9.42 15.18 15.32 13.02 12.40 5.87 10.81 10.89 10.75 8.48 4.75 5.80 5.88 5.46 10.17 7.65 7.03 3.04 1.63 -1.97 -5.52 -5.41 -3.95 -3.85 -8.04 -11.98 -10.57 -11.63 -11.25 -16.33 -17.42 -19.77 -20.32 -21.23 -22.13
MSLP
1005.09 1004.93 1004.98 1004.88 1005.36 1006.07 1006.69 1007.43 1008.15 1008.83 1009.40 1010.01 1010.69 1011.08 1011.40 1011.62 1011.89 1012.04 1013.27 1012.76 1013.01 1015.12 1015.90 1015.53 1015.40 1015.65 1016.06 1016.37 1017.35 1018.09 1018.40 1018.92 1019.70 1020.64 1021.64 1021.72 1021.46 1020.92 1020.51 1020.29 1020.02 1020.40 1020.84 1021.06 1021.05 1020.82 1020.47 1019.97 1019.34 1019.75 1020.68 1020.26 1020.18 1019.69
1005.47 1005.49 1005.38 1005.69 1005.69 1006.17 1006.88 1007.58 1008.22 1008.90 1009.64 1010.26 1010.80 1011.26 1011.65 1012.05 1012.19 1012.18 1013.60 1013.75 1013.69 1014.84 1016.20 1015.99 1015.91 1015.72 1015.83 1016.28 1016.96 1018.06 1018.62 1019.05 1019.81 1020.96 1021.85 1021.98 1022.01 1021.69 1021.45 1021.27 1020.59 1020.88 1020.87 1021.12 1021.20 1020.61 1020.18 1020.29 1020.65 1020.71 1020.79 1020.79 1020.59 1020.27
1005.74 1005.92 1005.92 1005.99 1006.34 1006.63 1006.94 1007.67 1008.36 1009.07 1009.82 1010.48 1011.06 1011.56 1012.01 1012.37 1012.58 1012.74 1013.90 1014.36 1014.62 1015.93 1016.70 1016.46 1016.25 1016.10 1016.00 1016.24 1016.55 1017.67 1018.87 1019.12 1019.81 1020.30 1021.59 1022.26 1022.18 1021.96 1021.74 1021.46 1021.16 1020.80 1020.76 1021.07 1021.22 1020.23 1020.31 1020.58 1020.66 1020.95 1020.99 1020.87 1020.89 1020.65
1006.05 1006.24 1006.41 1006.53 1006.56 1006.99 1007.18 1007.73 1008.55 1009.31 1010.00 1010.71 1011.33 1011.82 1012.33 1012.83 1013.22 1013.45 1014.37 1015.03 1015.42 1016.44 1017.08 1017.06 1016.27 1016.30 1016.00 1016.43 1016.87 1017.42 1018.27 1019.00 1019.84 1020.59 1021.59 1022.25 1022.33 1021.68 1021.56 1021.40 1021.47 1021.24 1021.14 1021.14 1020.94 1020.55 1020.53 1020.67 1020.95 1021.28 1021.08 1020.93 1020.98 1020.85
1006.16 1006.43 1006.68 1006.87 1007.04 1007.35 1007.65 1007.97 1008.63 1009.51 1010.16 1010.86 1011.55 1012.21 1012.76 1013.30 1013.80 1014.26 1014.96 1015.37 1015.37 1016.22 1017.20 1017.36 1016.81 1016.41 1016.33 1016.79 1017.44 1017.99 1018.68 1019.58 1020.63 1021.44 1022.08 1022.30 1021.79 1021.66 1021.45 1021.56 1021.38 1020.75 1020.69 1020.98 1020.70 1020.05 1020.33 1020.64 1021.02 1021.45 1021.53 1021.35 1021.09 1021.24
1006.32 1006.60 1006.89 1007.15 1007.48 1007.79 1008.05 1008.28 1008.66 1009.49 1010.37 1011.11 1011.88 1012.55 1013.15 1013.72 1014.18 1014.89 1015.80 1015.80 1015.57 1016.00 1017.28 1017.95 1017.82 1017.13 1016.94 1017.34 1017.92 1018.70 1019.32 1020.10 1020.91 1021.47 1021.80 1021.71 1021.12 1021.04 1021.61 1021.48 1020.23 1020.25 1020.30 1020.37 1020.47 1020.43 1020.68 1020.95 1021.27 1021.69 1021.96 1021.82 1021.82 1021.98
1006.37 1006.78 1007.08 1007.32 1007.66 1008.11 1008.44 1008.81 1009.00 1009.46 1010.34 1011.23 1012.07 1012.82 1013.57 1014.17 1014.82 1015.27 1015.76 1015.98 1015.75 1016.27 1017.68 1018.74 1018.42 1017.84 1017.41 1018.02 1018.82 1019.42 1019.73 1020.39 1020.84 1021.45 1021.69 1021.49 1020.97 1021.01 1021.20 1020.77 1019.72 1019.82 1020.01 1020.34 1020.54 1020.82 1021.28 1021.71 1022.20 1022.24 1022.45 1022.52 1022.54 1022.62
1006.40 1006.86 1007.30 1007.66 1007.98 1008.36 1008.83 1009.14 1009.43 1010.07 1010.64 1011.64 1012.43 1013.33 1014.16 1014.71 1015.21 1015.66 1016.02 1015.89 1016.08 1017.11 1018.11 1019.19 1019.16 1018.58 1018.25 1018.94 1019.65 1019.94 1020.41 1020.65 1020.85 1021.11 1021.31 1021.25 1021.08 1021.04 1020.78 1019.61 1019.44 1019.65 1020.09 1020.53 1020.86 1021.23 1021.69 1022.18 1022.58 1023.02 1023.18 1023.14 1023.19 1023.27
1006.44 1006.92 1007.37 1007.84 1008.21 1008.62 1009.05 1009.45 1009.80 1010.26 1011.06 1012.05 1012.95 1014.10 1014.89 1015.68 1016.23 1016.36 1016.26 1016.35 1016.74 1017.99 1018.93 1019.63 1019.59 1019.39 1018.73 1019.30 1019.87 1020.34 1020.43 1021.05 1021.11 1021.06 1021.00 1021.04 1020.90 1020.75 1020.17 1019.93 1020.04 1020.03 1020.46 1021.28 1021.87 1022.28 1022.68 1022.99 1023.50 1023.90 1024.02 1024.05 1024.04 1023.99
1006.42 1007.01 1007.51 1007.99 1008.43 1008.82 1009.18 1009.69 1010.06 1010.30 1011.09 1012.50 1013.85 1014.97 1016.41 1016.30 1016.08 1016.44 1017.05 1017.49 1017.94 1018.53 1019.02 1019.75 1019.60 1019.35 1019.04 1019.63 1020.38 1021.01 1021.01 1021.04 1021.05 1020.59 1020.54 1020.73 1020.53 1020.77 1020.93 1020.84 1021.20 1021.53 1021.56 1021.99 1022.52 1023.11 1023.61 1024.07 1024.40 1024.69 1024.86 1024.96 1025.00 1025.04
1006.40 1007.04 1007.64 1008.17 1008.64 1009.10 1009.51 1009.83 1010.06 1010.74 1011.64 1013.11 1014.31 1015.43 1016.08 1016.04 1016.64 1017.79 1018.60 1019.05 1019.59 1019.64 1019.46 1019.28 1019.33 1019.26 1019.15 1019.38 1020.02 1020.54 1020.88 1020.92 1020.96 1020.23 1020.52 1020.65 1020.74 1021.25 1021.91 1022.05 1022.46 1022.72 1022.97 1023.35 1023.70 1024.23 1024.64 1024.88 1025.13 1025.33 1025.55 1025.67 1025.90 1025.88
1006.36 1007.11 1007.79 1008.32 1008.81 1009.35 1010.04 1010.51 1010.61 1011.15 1012.11 1012.29 1013.11 1014.93 1016.03 1016.63 1017.85 1018.83 1019.43 1019.87 1019.71 1019.26 1019.11 1019.09 1019.09 1018.95 1018.98 1018.94 1019.59 1020.37 1020.61 1020.83 1020.44 1020.09 1020.57 1020.93 1021.49 1022.13 1022.56 1023.08 1023.52 1023.78 1024.07 1024.42 1024.77 1025.14 1025.55 1025.89 1026.07 1026.31 1026.54 1026.67 1026.81 1026.74
1006.44 1007.20 1007.90 1008.44 1008.92 1009.36 1009.94 1010.66 1011.01 1011.36 1011.51 1012.54 1013.73 1015.47 1016.29 1018.09 1018.72 1019.13 1019.39 1019.42 1019.12 1018.42 1018.45 1018.56 1019.10 1018.72 1019.00 1018.93 1019.28 1019.95 1020.40 1020.53 1020.18 1020.52 1021.12 1021.63 1022.17 1022.86 1023.36 1023.85 1024.31 1024.71 1025.06 1025.37 1025.75 1026.19 1026.60 1027.00 1027.21 1027.41 1027.59 1027.57 1027.46 1027.58
1006.72 1007.44 1008.06 1008.69 1009.23 1009.75 1010.24 1010.98 1011.29 1011.22 1011.59 1013.01 1014.41 1015.93 1016.81 1017.97 1018.10 1017.86 1017.78 1017.85 1017.52 1017.45 1017.59 1017.77 1018.38 1018.30 1018.56 1019.02 1019.00 1019.55 1019.88 1020.23 1020.74 1021.38 1021.32 1021.77 1022.46 1023.20 1023.90 1024.40 1024.90 1025.53 1025.99 1026.43 1026.88 1027.22 1027.60 1027.95 1028.21 1028.39 1028.49 1028.37 1028.43 1028.53
1007.14 1007.90 1008.54 1009.16 1009.63 1010.40 1010.77 1011.09 1011.36 1011.67 1012.17 1013.73 1014.69 1016.11 1016.92 1016.99 1017.16 1016.95 1017.08 1017.12 1017.11 1016.98 1017.15 1017.64 1017.94 1018.15 1018.46 1018.81 1018.91 1019.28 1020.14 1020.53 1021.06 1021.02 1021.47 1022.07 1022.79 1023.61 1024.34 1025.03 1025.68 1026.34 1026.91 1027.33 1027.67 1028.05 1028.38 1028.61 1028.81 1029.03 1029.01 1029.08 1029.16 1029.23
1007.72 1008.68 1009.29 1009.61 1010.22 1010.86 1011.71 1012.00 1012.48 1012.49 1013.30 1014.29 1015.25 1016.44 1016.85 1017.33 1017.41 1017.20 1017.20 1017.13 1016.98 1016.93 1017.03 1017.44 1017.99 1018.33 1018.56 1018.62 1019.12 1019.61 1020.50 1021.01 1020.88 1021.31 1021.86 1022.68 1023.51 1024.29 1024.99 1025.62 1026.24 1026.79 1027.32 1027.79 1028.21 1028.59 1028.90 1029.16 1029.39 1029.51 1029.43 1029.47 1029.56 1029.58
1008.33 1009.01 1009.56 1010.25 1010.71 1011.59 1012.57 1013.15 1013.25 1013.35 1014.09 1015.29 1016.48 1016.88 1017.06 1017.51 1017.53 1017.65 1017.29 1017.23 1016.95 1017.14 1017.39 1017.46 1017.91 1018.08 1018.64 1018.99 1019.65 1020.00 1020.75 1021.07 1021.60 1022.26 1022.99 1023.50 1024.20 1024.98 1025.60 1026.15 1026.77 1027.33 1027.83 1028.28 1028.68 1028.97 1029.20 1029.10 1029.22 1029.42 1029.71 1029.65 1029.73 1029.81
1009.08 1009.52 1010.17 1010.76 1011.59 1012.41 1013.25 1013.09 1013.32 1014.11 1015.61 1016.48 1017.22 1017.64 1017.75 1018.15 1018.20 1018.12 1017.70 1017.36 1017.39 1017.21 1017.27 1017.36 1017.49 1018.50 1019.18 1019.58 1020.18 1020.42 1021.13 1021.94 1022.57 1023.32 1023.97 1024.65 1025.09 1025.58 1026.01 1026.62 1027.21 1027.73 1028.20 1028.62 1028.94 1029.06 1029.13 1029.37 1029.45 1029.64 1029.56 1029.51 1029.67 1029.87
1009.48 1010.17 1010.84 1011.35 1011.85 1012.54 1013.18 1013.54 1013.65 1014.94 1016.28 1016.86 1017.35 1017.80 1018.32 1018.49 1018.32 1018.12 1018.28 1017.93 1017.51 1017.45 1017.78 1018.21 1018.83 1019.42 1019.85 1019.83 1020.22 1020.83 1021.60 1022.29 1023.31 1024.33 1025.16 1025.30 1025.66 1026.12 1026.59 1027.10 1027.63 1028.08 1028.49 1028.77 1029.01 1029.23 1029.41 1029.37 1029.62 1029.59 1029.68 1029.73 1030.24 1030.18
1009.97 1010.70 1011.11 1011.62 1012.27 1012.85 1013.15 1013.68 1013.80 1014.97 1016.53 1017.17 1017.77 1018.42 1018.62 1018.70 1018.54 1018.54 1018.46 1018.16 1017.98 1018.30 1018.91 1019.38 1019.74 1019.95 1020.04 1020.11 1020.31 1020.72 1021.60 1022.34 1023.27 1024.65 1025.74 1026.24 1026.34 1026.69 1027.15 1027.54 1028.03 1028.33 1028.64 1028.83 1029.05 1029.22 1029.55 1029.80 1029.84 1029.94 1030.05 1030.23 1030.54 1030.78
1011.03 1011.53 1011.89 1012.10 1012.53 1012.59 1013.26 1014.10 1015.04 1015.83 1016.65 1017.22 1017.68 1017.98 1018.76 1018.69 1018.76 1018.74 1018.78 1018.74 1019.10 1019.75 1020.36 1020.49 1020.62 1020.57 1020.53 1020.50 1020.71 1021.15 1021.94 1022.43 1023.21 1023.95 1024.94 1026.21 1026.66 1027.06 1027.59 1027.86 1027.90 1028.27 1028.94 1029.28 1029.58 1030.08 1030.19 1030.40 1030.16 1030.28 1030.41 1030.62 1030.81 1030.94
1011.21 1011.70 1012.32 1012.56 1012.92 1013.23 1013.89 1014.37 1014.86 1015.58 1016.36 1017.02 1017.58 1018.00 1018.71 1018.98 1019.19 1018.92 1018.98 1019.61 1020.16 1020.36 1020.55 1021.19 1021.08 1021.22 1021.25 1021.50 1021.56 1021.80 1022.20 1022.84 1023.44 1024.07 1024.88 1025.72 1026.97 1027.47 1027.80 1028.06 1028.34 1028.76 1029.13 1029.46 1029.77 1030.37 1030.38 1030.22 1030.39 1030.57 1030.73 1030.88 1030.64 1030.77
1010.67 1010.96 1011.57 1012.17 1013.20 1014.01 1015.12 1014.87 1015.31 1015.90 1016.63 1017.25 1017.55 1018.06 1018.76 1018.94 1018.90 1018.78 1019.57 1020.10 1020.41 1020.27 1020.58 1020.88 1021.11 1021.32 1021.54 1021.98 1022.07 1022.46 1022.65 1023.05 1023.88 1024.49 1025.12 1025.93 1026.76 1027.14 1027.64 1027.97 1028.19 1028.82 1029.29 1029.70 1029.65 1029.92 1030.25 1030.42 1030.73 1030.89 1030.98 1031.00 1031.01 1031.08
1010.61 1012.12 1013.14 1013.64 1014.17 1015.31 1015.26 1015.34 1015.49 1016.00 1016.64 1017.27 1017.78 1018.33 1018.74 1018.96 1019.19 1019.62 1020.30 1020.29 1020.24 1020.38 1020.75 1021.07 1021.18 1021.74 1022.10 1022.40 1023.00 1023.24 1023.52 1023.50 1024.22 1025.07 1025.38 1026.09 1027.15 1027.84 1027.80 1028.21 1028.54 1028.84 1029.02 1029.33 1029.89 1030.28 1030.58 1030.76 1030.97 1031.13 1031.20 1031.28 1031.28 1031.34
1012.59 1014.53 1014.84 1015.14 1015.19 1015.58 1015.79 1015.89 1016.14 1016.46 1017.03 1017.44 1018.01 1018.60 1018.93 1019.28 1019.98 1020.31 1020.28 1020.01 1020.46 1020.72 1021.05 1021.00 1021.19 1021.42 1022.08 1022.81 1023.45 1023.74 1023.73 1023.80 1024.48 1025.49 1026.26 1026.30 1027.41 1028.16 1028.71 1028.89 1029.09 1029.36 1029.31 1029.73 1030.30 1030.55 1030.79 1031.00 1031.15 1031.30 1031.41 1031.50 1031.57 1031.66
1014.50 1015.58 1015.81 1015.67 1015.94 1015.88 1016.22 1016.61 1016.59 1016.91 1017.36 1017.91 1018.56 1018.97 1019.40 1020.19 1020.52 1020.32 1019.76 1019.82 1020.33 1020.57 1020.70 1020.82 1021.11 1021.78 1022.35 1022.59 1023.47 1023.91 1024.28 1024.28 1024.69 1025.66 1026.50 1026.78 1027.05 1027.66 1028.57 1029.16 1029.52 1029.97 1029.57 1029.69 1030.45 1030.89 1031.08 1031.16 1031.27 1031.43 1031.51 1031.61 1031.70 1031.80
1015.86 1016.25 1016.21 1016.07 1016.18 1016.33 1016.90 1017.00 1017.04 1017.58 1017.99 1018.52 1019.01 1019.96 1020.22 1020.73 1020.49 1019.59 1019.35 1019.60 1019.68 1019.55 1019.73 1020.26 1020.68 1021.27 1022.07 1022.91 1023.48 1023.82 1024.21 1024.56 1025.01 1025.73 1026.44 1026.81 1027.13 1027.38 1027.81 1028.62 1028.96 1029.39 1029.65 1030.05 1030.27 1030.75 1031.08 1031.27 1031.34 1031.43 1031.55 1031.70 1031.77 1031.87
1016.49 1016.78 1017.22 1017.48 1017.49 1017.62 1018.21 1018.50 1018.45 1018.54 1018.68 1018.56 1019.28 1020.47 1020.70 1020.20 1019.78 1019.41 1019.13 1019.07 1019.00 1019.18 1019.65 1020.27 1020.67 1021.18 1022.02 1022.82 1023.48 1024.26 1025.10 1025.55 1026.03 1026.52 1026.99 1027.55 1027.95 1028.06 1028.17 1028.50 1028.73 1029.00 1029.89 1030.49 1030.63 1030.50 1030.55 1030.91 1031.33 1031.58 1031.81 1032.00 1032.23 1032.04
1017.29 1017.66 1017.93 1018.81 1018.89 1019.06 1019.14 1019.45 1019.44 1019.48 1019.38 1019.39 1020.06 1020.14 1020.12 1019.85 1019.71 1019.54 1019.20 1019.08 1019.10 1019.34 1020.07 1020.74 1021.50 1021.73 1022.58 1023.50 1024.08 1024.36 1024.90 1025.53 1026.30 1027.26 1027.68 1028.54 1029.05 1029.24 1029.15 1029.38 1029.84 1030.40 1030.40 1030.84 1030.21 1030.57 1030.50 1030.38 1030.62 1031.41 1031.76 1032.11 1032.31 1032.44
1018.47 1018.43 1019.27 1019.88 1020.57 1020.65 1020.55 1020.51 1020.53 1020.43 1020.19 1020.00 1020.09 1020.40 1020.35 1020.12 1019.69 1019.41 1019.29 1019.31 1019.40 1019.61 1019.97 1020.57 1021.32 1021.88 1022.86 1023.69 1024.83 1025.65 1025.73 1025.65 1025.90 1026.40 1027.36 1028.18 1028.48 1028.65 1029.24 1029.76 1030.34 1030.91 1031.15 1031.07 1030.72 1030.57 1030.44 1031.17 1030.97 1031.82 1032.63 1033.02 1033.24 1033.64
1018.92 1019.14 1020.02 1020.68 1021.20 1021.35 1021.51 1021.50 1021.19 1021.17 1021.29 1020.95 1021.16 1021.28 1021.17 1020.96 1019.92 1019.24 1019.22 1019.21 1019.42 1019.73 1020.24 1020.96 1021.62 1021.93 1022.60 1023.39 1024.06 1024.90 1025.60 1025.82 1025.81 1026.05 1026.31 1026.73 1027.52 1028.40 1029.15 1029.88 1030.45 1030.72 1031.20 1031.11 1031.02 1031.11 1031.50 1032.15 1032.76 1033.31 1033.70 1034.06 1034.36 1034.49
1019.90 1020.34 1020.85 1021.76 1021.93 1021.98 1022.04 1022.54 1022.51 1022.26 1022.38 1022.02 1021.92 1021.84 1021.71 1021.62 1020.99 1020.09 1019.12 1019.10 1019.52 1019.96 1020.28 1020.68 1021.34 1021.99 1022.41 1022.73 1023.28 1023.76 1023.99 1024.87 1025.52 1025.84 1026.25 1026.78 1027.51 1028.27 1028.93 1029.60 1030.14 1030.29 1030.88 1031.14 1031.30 1031.51 1031.89 1032.86 1033.46 1033.83 1034.21 1034.57 1034.81 1034.98
1020.79 1020.94 1021.47 1022.14 1022.43 1022.74 1023.06 1023.13 1023.30 1023.11 1022.77 1022.88 1022.42 1022.19 1022.04 1021.77 1021.06 1020.25 1019.41 1019.16 1019.08 1019.37 1020.02 1020.65 1021.16 1021.55 1022.09 1022.68 1023.34 1023.92 1024.37 1024.97 1025.46 1025.70 1026.27 1026.72 1027.50 1028.26 1028.98 1029.62 1029.92 1030.13 1030.73 1031.18 1031.62 1032.01 1032.64 1033.40 1033.95 1034.34 1034.67 1034.95 1035.20 1035.24
Wind_Speed
5 5 8 9 17 15 17 19 19 20 18 17 16 15 13 12 8 4 1 4 5 4 2 4 3 4 3 3 5 3 4 4 3 4 3 3 2 1 1 1 1 3 1 1 1 1 5 4 3 4 5 8 11 10
5 5 9 9 9 19 18 17 19 19 18 17 17 15 14 12 9 6 4 4 2 6 3 2 2 0 4 4 6 3 4 2 3 4 1 2 1 2 3 2 4 2 6 4 6 5 1 2 0 4 6 6 8 8
5 5 6 10 13 8 17 18 19 17 18 17 16 16 14 14 11 7 3 3 5 4 3 3 3 3 2 2 3 6 1 3 3 3 4 2 2 3 2 4 1 2 2 2 1 3 4 3 1 3 6 4 6 8
6 6 6 8 12 13 8 16 18 20 18 18 16 16 15 14 11 7 4 1 4 3 5 2 2 1 2 4 4 4 7 5 5 3 3 3 2 3 3 3 4 6 2 4 4 1 4 5 1 4 6 5 4 5
8 7 7 10 12 12 11 14 19 19 18 18 18 17 17 16 16 8 4 3 3 5 4 1 3 2 4 7 8 7 7 5 3 3 3 2 2 1 0 3 3 4 7 5 7 3 4 3 4 1 5 7 3 6
10 9 7 9 13 13 13 10 19 22 22 17 19 18 18 18 11 5 5 3 1 3 5 3 3 4 4 6 8 6 4 4 3 4 2 2 3 3 2 3 4 3 3 6 4 4 4 4 5 2 2 3 5 6
13 11 9 8 15 14 13 13 14 17 23 20 20 20 21 15 4 4 5 3 4 3 4 3 3 4 3 5 3 3 3 2 3 2 2 2 2 4 2 4 3 6 4 3 2 4 1 2 4 3 4 4 6 6
15 13 11 11 12 15 13 12 15 19 21 19 21 23 18 13 6 5 3 3 4 5 4 3 1 3 4 2 2 1 3 1 0 2 1 2 0 1 5 6 3 5 7 6 2 5 4 7 7 7 5 3 4 5
16 15 14 14 13 15 15 13 14 21 22 24 26 19 7 5 3 2 10 10 3 5 3 3 3 3 2 2 2 3 2 1 1 2 3 4 3 5 2 2 3 7 4 9 8 9 8 8 7 5 4 5 4 5
18 17 15 14 13 13 14 15 14 18 30 32 12 5 3 3 6 6 7 4 5 4 3 2 2 1 3 1 0 3 1 2 1 4 3 3 3 5 5 7 8 7 8 5 4 3 3 4 3 2 3 4 4 5
20 19 17 16 15 14 13 11 18 26 26 3 4 3 2 12 4 4 3 4 2 2 2 3 4 4 2 3 3 2 3 1 1 3 4 3 3 4 6 10 9 9 9 9 9 7 6 4 2 2 3 4 5 6
23 21 20 17 16 16 16 24 32 7 4 6 10 7 3 3 4 5 2 1 3 4 3 4 4 4 3 3 3 1 3 1 4 3 3 3 0 8 9 8 7 7 8 8 7 7 6 6 4 4 3 4 4 4
22 20 20 18 15 14 17 29 15 13 22 6 5 4 4 0 4 7 8 4 3 3 4 3 1 4 1 1 2 3 3 5 2 1 3 3 5 6 6 7 6 6 7 7 7 7 7 7 6 5 3 4 4 4
22 20 19 18 15 18 29 20 21 17 4 4 4 6 5 5 5 5 4 5 5 3 4 4 2 3 3 3 2 3 4 2 3 1 5 4 7 8 5 5 6 5 5 6 5 6 6 5 4 4 3 3 4 4
22 20 18 16 17 21 20 17 11 4 3 4 3 5 5 3 1 3 3 2 1 2 4 3 3 3 1 3 2 2 2 3 5 5 3 3 8 8 6 6 6 5 4 4 3 4 3 3 3 3 3 3 4 3
21 18 4 18 22 24 17 7 3 3 3 3 4 4 2 4 2 4 4 2 0 3 3 2 2 2 2 4 3 5 6 7 5 2 4 7 7 6 6 5 5 4 4 3 3 2 2 1 1 1 2 2 2 2
12 1 19 18 16 22 15 2 2 2 3 3 3 2 2 3 3 1 1 3 1 3 3 3 5 7 2 2 4 2 5 4 4 5 2 4 6 7 6 5 5 5 4 3 2 0 2 1 0 3 3 2 0 0
4 14 19 16 15 8 2 2 2 4 5 2 4 1 2 1 3 0 0 1 2 1 1 4 2 3 5 5 4 4 2 2 2 3 3 4 5 5 6 6 5 5 4 3 3 1 3 4 4 1 2 0 2 1
14 13 21 19 8 3 3 1 2 4 2 2 2 2 2 2 1 1 1 3 2 3 1 1 4 4 4 3 3 2 5 3 4 2 2 2 5 6 5 5 5 3 3 3 3 2 2 1 2 0 1 2 2 1
20 22 21 21 10 2 2 3 3 5 3 2 2 1 2 2 2 1 0 2 2 2 1 2 4 3 4 3 3 4 5 7 8 5 2 1 1 5 5 5 3 4 3 3 3 3 2 2 2 1 1 2 2 1
10 6 11 7 1 2 4 2 4 2 3 3 2 2 0 2 2 0 1 1 2 2 2 3 3 1 1 1 2 7 8 9 7 5 6 4 3 4 3 1 3 2 3 2 3 1 2 2 2 1 1 0 1 1
3 17 3 4 2 2 4 3 4 2 3 2 2 2 2 1 0 2 1 2 2 4 4 4 2 2 2 3 2 4 7 6 5 6 6 8 3 3 2 3 4 2 3 3 3 4 3 2 1 1 1 2 1 1
4 4 3 3 6 5 1 1 4 1 4 2 1 2 2 1 2 1 1 2 4 3 3 3 3 2 5 1 5 6 4 8 5 5 5 4 3 3 4 2 3 5 3 2 2 3 2 1 1 1 1 1 1 1
6 6 4 3 4 2 1 2 2 3 3 2 2 2 2 2 1 2 3 3 4 1 2 4 7 5 4 5 3 2 2 5 6 5 4 7 5 2 2 3 2 2 2 3 2 2 1 1 1 1 2 1 2 1
6 6 5 3 3 4 2 2 1 2 2 2 2 0 2 2 1 2 4 3 4 1 2 3 3 4 4 2 2 1 2 5 7 7 2 4 5 4 4 3 3 1 1 4 2 2 1 0 1 2 2 2 2 2
5 4 3 2 1 3 3 3 3 4 3 1 2 0 2 3 0 6 4 3 3 4 6 8 6 4 2 3 6 3 2 2 6 5 0 4 7 8 6 5 3 3 1 3 5 3 1 0 2 4 3 3 2 2
1 3 2 2 1 2 3 2 2 4 3 3 3 2 3 2 5 5 1 2 3 4 6 6 6 7 7 3 3 3 4 3 4 5 4 3 2 2 6 7 5 4 3 4 4 5 5 3 2 2 2 1 2 3
3 2 3 2 2 1 4 1 3 4 3 1 4 3 6 8 5 3 3 2 2 5 6 5 4 6 6 5 6 7 6 7 8 8 6 5 5 3 3 4 4 7 4 3 5 4 3 4 4 4 4 4 1 1
1 2 3 3 3 2 2 4 4 1 1 3 5 3 4 3 3 2 1 1 2 7 7 6 3 6 7 6 4 5 9 9 8 6 5 2 1 3 1 2 3 3 3 4 3 5 6 4 4 4 4 4 3 2
2 1 4 2 3 4 4 3 2 3 1 2 2 1 2 3 3 2 1 3 4 6 6 7 7 7 8 9 5 2 3 1 3 6 7 6 6 4 4 3 3 2 2 4 3 2 5 5 4 4 4 3 3 3
1 2 3 2 3 3 3 2 2 0 3 1 2 3 3 3 4 3 2 3 4 6 7 7 3 6 9 8 8 8 3 2 4 4 3 4 5 6 5 4 3 3 3 4 4 3 3 2 3 4 5 4 2 2
2 1 3 1 3 4 4 2 1 0 3 3 2 2 4 4 3 3 2 4 6 6 3 8 9 7 4 4 4 3 5 6 5 5 8 6 6 6 5 4 4 4 5 5 4 3 4 6 4 4 4 3 1 1
3 2 3 3 4 5 4 3 4 4 2 2 3 4 4 4 5 3 4 1 4 7 7 6 3 5 8 9 7 5 5 5 7 9 9 10 10 8 5 4 4 5 6 5 4 4 5 5 3 3 4 3 3 2
Wind_Direction
71 83 77 81 168 166 154 160 163 155 152 147 146 143 138 126 86 78 39 352 97 94 18 28 67 108 82 89 131 201 70 358 51 77 135 211 169 282 55 309 176 160 135 222 287 313 281 1 352 61 309 323 326 326
97 72 133 115 71 167 167 156 157 154 150 150 150 146 138 128 89 76 61 357 27 82 130 5 359 59 90 159 126 39 137 107 154 98 153 102 177 31 161 245 352 269 180 195 183 224 200 103 78 315 316 314 327 314
130 122 93 134 136 93 171 164 156 155 153 149 148 143 137 122 76 83 95 7 49 77 19 61 66 9 341 98 136 110 343 140 68 156 147 159 132 134 172 245 85 288 163 192 38 237 206 171 142 301 307 294 326 328
169 151 145 128 137 134 124 164 168 161 160 154 147 139 133 124 96 81 86 9 81 107 106 269 355 126 152 124 75 88 125 65 95 74 97 129 166 174 217 215 154 201 89 188 259 11 135 204 190 296 303 313 315 349
175 161 163 153 134 136 122 162 166 169 160 153 149 143 142 129 98 80 74 38 93 115 150 214 306 352 128 137 114 100 94 87 77 66 83 214 240 162 351 41 266 184 200 164 226 178 148 145 135 7 330 314 330 31
175 168 169 172 153 140 131 128 167 167 166 160 151 143 139 129 111 69 38 332 53 84 88 71 298 357 82 118 127 121 115 91 96 133 195 247 260 110 124 242 249 224 196 193 199 179 165 127 127 107 18 17 74 57
177 172 170 167 167 154 145 137 136 142 168 164 149 139 130 122 73 98 164 222 129 80 74 37 15 351 56 91 52 72 52 100 117 148 196 200 274 145 168 226 212 192 168 127 144 112 48 20 185 70 104 65 62 53
177 173 169 168 161 158 154 151 144 148 140 144 143 129 121 95 81 36 334 116 90 84 66 99 293 50 1 87 89 22 103 108 350 173 73 192 295 166 246 242 287 148 125 90 119 62 97 109 84 60 40 40 46 20
170 168 165 161 159 162 159 154 154 160 151 146 125 105 61 42 63 63 95 76 51 106 110 84 131 204 26 69 93 40 76 94 1 179 236 118 201 223 301 163 104 142 137 118 83 80 76 89 82 61 45 26 7 2
165 162 161 160 152 157 160 168 158 152 126 115 106 72 106 238 128 111 16 37 11 345 45 150 127 192 135 102 9 76 34 186 169 233 129 191 244 85 42 79 76 45 69 109 117 105 88 101 125 87 44 12 17 350
165 161 162 159 156 154 153 164 174 145 118 73 113 93 190 151 67 43 88 89 306 4 184 223 190 138 234 125 180 194 173 163 226 243 151 216 247 103 92 81 72 67 70 76 93 95 77 80 93 83 44 17 16 1
165 164 166 165 164 164 156 140 134 114 149 153 108 93 96 68 58 87 113 319 193 227 182 158 202 186 161 143 125 204 156 162 254 149 220 249 194 126 117 104 92 91 90 89 90 93 83 79 70 71 48 37 28 12
161 161 164 166 167 169 164 154 139 144 124 88 68 85 100 93 97 155 181 203 226 201 188 162 149 143 97 121 120 112 158 221 34 161 238 231 132 139 127 127 110 98 95 92 87 91 83 74 59 61 51 21 31 34
156 157 161 164 164 145 147 143 156 132 117 86 123 128 139 178 214 189 171 178 224 148 147 141 107 149 170 156 145 109 224 177 19 259 234 163 164 152 137 131 127 104 85 87 80 85 88 84 79 63 43 29 47 28
150 151 154 156 152 137 163 179 159 37 84 107 122 136 185 200 177 192 187 69 117 176 131 78 62 102 126 108 193 162 184 230 202 231 203 171 140 138 134 134 124 121 117 101 90 96 75 59 65 29 14 12 57 56
142 134 120 150 146 143 160 170 355 19 55 74 60 106 106 109 137 151 169 162 132 141 65 69 121 95 221 146 147 205 156 218 234 176 146 131 127 122 124 124 133 139 139 140 118 128 143 145 156 226 308 36 33 76
104 72 149 150 148 132 118 118 204 76 77 70 99 43 101 103 145 203 85 170 90 110 157 135 158 198 130 139 186 190 204 213 162 138 100 117 136 138 131 127 132 133 123 125 118 360 272 229 79 39 2 299 36 232
71 129 129 136 120 90 36 324 65 80 77 79 112 154 79 103 131 53 328 4 114 110 87 205 129 157 166 166 232 199 138 102 72 128 127 111 117 132 139 141 140 145 153 160 137 85 47 79 81 24 342 238 38 62
131 130 129 130 116 107 142 215 93 96 86 132 81 38 127 152 85 76 54 287 188 115 120 155 101 171 208 206 163 168 147 153 140 140 119 129 136 138 132 121 129 122 128 138 144 129 142 117 144 296 111 65 91 23
128 140 153 162 148 165 112 27 71 89 116 153 88 61 123 159 231 128 340 359 65 84 22 137 203 209 177 222 181 139 136 132 130 117 94 21 102 118 140 143 152 143 108 74 74 131 104 46 19 19 66 91 93 339
114 161 153 161 266 64 82 79 56 117 154 120 173 89 56 20 56 46 34 353 72 167 209 213 207 199 98 62 144 124 134 145 158 150 159 158 224 144 140 146 137 118 113 118 127 87 87 188 244 242 123 90 246 250
160 168 132 199 119 66 81 14 108 108 71 105 85 117 103 108 235 260 182 59 228 228 186 170 165 138 124 99 87 118 134 110 104 105 88 117 116 113 137 169 120 132 152 170 147 170 215 240 247 148 124 272 185 77
148 142 70 58 71 52 333 93 76 101 111 208 124 73 347 57 228 92 32 225 247 228 178 142 151 152 116 104 89 71 91 130 121 124 121 111 107 110 110 108 129 134 131 253 187 167 188 235 141 123 348 33 78 13
27 54 47 52 69 104 15 44 84 93 65 106 136 168 154 165 56 56 248 241 247 160 91 136 130 108 88 85 84 108 77 111 109 81 116 124 119 34 87 116 107 113 157 147 143 156 157 208 346 63 55 83 40 148
68 347 70 24 353 84 81 67 79 82 135 177 108 101 217 79 99 246 235 260 160 148 140 135 127 134 127 104 82 66 324 134 133 135 355 108 107 91 63 51 49 35 35 102 89 145 202 106 98 132 146 146 185 229
64 292 87 168 294 104 159 121 172 164 130 123 182 58 51 91 62 246 246 196 194 164 172 169 153 127 115 139 143 139 181 120 113 105 188 154 153 149 154 149 138 299 356 131 130 127 122 76 158 185 215 230 209 157
125 289 313 352 61 96 57 5 72 106 145 171 189 117 84 211 249 253 273 215 175 200 160 159 157 157 154 139 92 84 105 80 112 127 112 95 92 152 159 166 182 210 160 149 140 148 162 183 195 198 210 183 183 183
193 119 150 267 57 22 140 127 143 188 208 195 91 165 183 198 236 236 221 259 180 139 132 131 129 136 137 136 127 118 93 100 93 93 85 57 46 36 65 92 103 127 123 135 137 128 135 156 151 144 130 125 109 20
31 317 85 28 4 23 190 178 210 242 202 133 155 222 237 239 227 250 293 189 138 130 129 121 65 95 88 77 61 119 138 144 124 119 125 169 5 298 22 87 96 96 124 115 156 145 155 151 155 144 146 145 157 87
293 69 90 60 137 233 251 166 217 256 263 191 154 9 336 300 255 234 158 134 150 157 149 142 142 143 147 145 135 66 354 140 144 143 164 189 203 186 154 148 136 134 119 117 120 50 52 55 66 40 57 51 43 53
340 70 79 105 224 249 236 272 308 232 26 22 350 148 232 288 303 261 179 152 121 127 128 137 121 154 146 150 158 156 187 253 187 179 138 128 138 146 155 163 152 135 121 114 115 115 107 72 99 110 105 106 87 119
37 135 139 250 285 296 11 57 313 356 327 30 298 19 0 27 286 284 256 139 151 162 163 158 158 176 166 127 121 118 142 140 157 155 148 141 136 139 137 130 128 124 115 111 115 109 110 127 126 128 133 149 174 184
47 48 68 64 4 354 311 54 359 328 347 320 269 198 205 177 234 271 312 288 183 166 164 166 141 132 145 144 144 134 117 116 124 126 122 122 127 132 126 125 124 117 120 115 110 116 122 119 116 131 140 156 184 216